User: anonymous   Login
Location: Fort Wayne
(41.1310°N, 85.1290°W)
Time: 12:01:03
(UTC-04:00)
Language:

Oscar 19 - Orbit

View from above orbital plane
View from above orbital plane
View from above satellite
View from above satellite

Ground track
Ground track

The orbit data is extracted from the following two-line orbital elements,

1 20442U 90005G   14297.42673918  .00000287  00000-0  12132-3 0   911
2 20442 098.4885 232.6492 0012924 124.0290 236.2124 14.32608503293185
Epoch (UTC): 24 October 2014 10:14:30
Eccentricity: 0.0012924
inclination: 98.4885°
perigee height: 774 km
apogee height: 792 km
right ascension of ascending node: 232.6492°
argument of perigee: 124.0290°
revolutions per day: 14.32608503
mean anomaly at epoch: 236.2124°
orbit number at epoch: 29318

The dashed part of the orbit path shows where the satellite is in the earth's shadow,  

DLR